Location: Berlise
(49.6641°N, 4.1077°E)
Time: 22:50:18
(UTC+00:00)

Cosmos 1634 Rocket - Visible Passes

Search period start: 05 May 2021 00:00
Search period end: 15 May 2021 00:00
Orbit: 958 x 993 km, 82.9° (Epoch: 05 May)

Date Brightness Start Highest point End Pass type
(mag) Time Alt. Az. Time Alt. Az. Time Alt. Az.
05 May 7.1 03:09:37 10° NNE 03:13:21 16° ENE 03:17:03 10° E visible
05 May 7.2 20:18:09 10° W 20:21:03 13° NW 20:23:58 10° NNW visible
06 May 6.6 03:34:21 10° N 03:39:27 26° ENE 03:44:30 10° ESE visible
08 May 7.1 02:41:10 10° NNE 02:44:23 14° NE 02:47:36 10° E visible
08 May 7.2 19:48:38 10° W 19:52:06 15° WNW 19:55:34 10° NNW visible
09 May 6.7 03:05:42 10° NNE 03:10:32 23° ENE 03:15:20 10° ESE visible
11 May 7.1 02:12:50 10° NNE 02:15:25 13° NE 02:18:00 10° E visible
12 May 6.7 02:37:05 10° NNE 02:41:37 21° ENE 02:46:08 10° ESE visible
13 May 5.9 03:02:05 10° N 03:07:37 33° ENE 03:13:08 10° SE visible
14 May 7.1 01:44:45 10° NE 01:46:26 11° NE 01:48:08 10° ENE visible
